GW1008 Weather Reports


Display with metric or nautical units.
time (UTC)temp
F
wind
direction
speed
MPH
gust
MPH
rain 1hr
in
rain 24hr
in
rain mn
in
humidity
%
barometer
mb
20260906112516 60 0 0.0 4.0 0.00 0.18 0.18 80 1012.0
20260906112018 60 0 0.0 1.0 0.00 0.18 0.18 81 1011.9
20260906111534 60 0 0.0 6.0 0.00 0.18 0.18 80 1012.0
20260906111015 60 0 0.0 6.0 0.00 0.18 0.18 80 1011.9
20260906110515 60 195 0.0 4.0 0.00 0.18 0.18 81 1012.1
20260906110040 60 0 0.0 5.0 0.00 0.18 0.18 81 1012.1
20260906105515 60 0 0.0 9.0 0.00 0.18 0.18 81 1012.1
20260906105017 59 0 0.0 10.0 0.00 0.18 0.18 81 1012.1
20260906104533 59 236 1.0 10.0 0.00 0.18 0.18 81 1012.2
20260906104019 59 0 0.0 9.0 0.00 0.18 0.18 81 1012.1
20260906103516 59 0 1.0 9.0 0.00 0.18 0.18 81 1012.3
20260906103033 59 0 0.0 10.0 0.00 0.18 0.18 82 1012.1
20260906102519 58 0 0.0 10.0 0.00 0.18 0.18 81 1012.3
20260906102019 59 0 0.0 8.0 0.00 0.18 0.18 81 1012.4
20260906101533 59 0 1.0 9.0 0.00 0.18 0.18 81 1012.4
20260906101018 59 0 0.0 11.0 0.00 0.18 0.18 81 1012.4
20260906100519 58 0 1.0 11.0 0.00 0.18 0.18 81 1012.3
20260906100032 58 159 0.0 9.0 0.00 0.18 0.18 82 1012.5
20260906095518 58 0 0.0 9.0 0.00 0.18 0.18 82 1012.8
20260906095016 57 0 0.0 5.0 0.00 0.18 0.18 83 1012.8
20260906094549 57 0 0.0 0.0 0.00 0.18 0.18 84 1013.0
20260906094017 57 0 0.0 0.0 0.00 0.18 0.18 84 1013.1
20260906093516 57 0 0.0 0.0 0.00 0.18 0.18 84 1013.2
20260906093037 57 0 0.0 0.0 0.00 0.18 0.18 84 1013.2
20260906092516 56 0 0.0 0.0 0.00 0.18 0.18 84 1013.3
20260906092019 56 0 0.0 0.0 0.00 0.18 0.18 84 1013.4
20260906091540 56 0 0.0 0.0 0.00 0.18 0.18 84 1013.5
20260906091018 56 0 0.0 0.0 0.00 0.18 0.18 84 1013.6
20260906090520 56 0 0.0 0.0 0.00 0.18 0.18 84 1013.7
20260906090033 56 0 0.0 0.0 0.00 0.18 0.18 84 1013.6
20260906085516 56 0 0.0 0.0 0.00 0.18 0.18 83 1013.8
20260906085015 56 0 0.0 0.0 0.00 0.18 0.18 83 1013.9
20260906084538 56 0 0.0 0.0 0.00 0.18 0.18 83 1013.9
20260906084019 56 0 0.0 0.0 0.00 0.18 0.18 83 1013.9
20260906083521 56 0 0.0 2.0 0.00 0.18 0.18 83 1014.0
20260906083036 56 0 0.0 2.0 0.00 0.18 0.18 83 1014.1
20260906082515 56 0 0.0 0.0 0.00 0.18 0.18 83 1014.0
20260906082020 56 0 0.0 3.0 0.00 0.18 0.18 83 1014.1
20260906081544 56 0 0.0 3.0 0.00 0.18 0.18 83 1014.2
20260906081018 56 0 0.0 6.0 0.00 0.18 0.18 83 1014.0
20260906080521 56 0 0.0 6.0 0.00 0.18 0.18 84 1014.1
20260906080033 56 0 0.0 5.0 0.00 0.18 0.18 84 1014.1
20260906075519 56 0 0.0 12.0 0.00 0.18 0.18 83 1014.1
20260906075015 56 0 0.0 12.0 0.00 0.18 0.18 83 1013.9
20260906074533 55 0 0.0 12.0 0.00 0.18 0.18 83 1013.9
20260906074017 55 0 0.0 7.0 0.00 0.18 0.18 83 1014.0
20260906073518 55 0 0.0 7.0 0.00 0.18 0.18 83 1014.2
20260906073033 55 146 0.0 6.0 0.00 0.18 0.18 83 1014.3
20260906072517 55 0 0.0 7.0 0.00 0.18 0.18 84 1014.4
20260906072016 55 184 0.0 7.0 0.00 0.18 0.18 84 1014.4
20260906071534 55 0 0.0 4.0 0.00 0.18 0.18 84 1014.5
20260906071017 55 0 0.0 5.0 0.00 0.18 0.18 84 1014.4
20260906070524 55 221 0.0 5.0 0.00 0.18 0.18 84 1014.5
20260906070033 55 0 0.0 6.0 0.00 0.18 0.18 84 1014.5
20260906065518 55 0 0.0 7.0 0.00 0.18 0.18 84 1014.6
20260906065017 55 0 0.0 10.0 0.01 0.18 0.18 84 1014.5
20260906064532 55 175 0.0 10.0 0.01 0.18 0.18 84 1014.5
20260906064014 55 0 1.0 10.0 0.02 0.18 0.18 84 1014.5
20260906063517 55 0 0.0 9.0 0.02 0.18 0.18 84 1014.5
20260906063033 54 0 0.0 9.0 0.02 0.18 0.18 84 1014.5
20260906062522 54 0 1.0 8.0 0.03 0.18 0.18 84 1014.5
20260906062017 54 248 0.0 8.0 0.03 0.18 0.18 84 1014.5
20260906061539 54 0 0.0 7.0 0.04 0.18 0.18 84 1014.9
20260906061017 54 183 0.0 5.0 0.04 0.18 0.18 85 1014.7
20260906060516 54 0 0.0 5.0 0.05 0.18 0.18 85 1014.6
20260906060033 53 0 0.0 5.0 0.05 0.18 0.18 85 1014.7
20260906055518 53 0 0.0 6.0 0.05 0.18 0.18 85 1015.0
20260906055017 53 0 0.0 6.0 0.04 0.17 0.17 85 1015.0
20260906054536 53 0 0.0 4.0 0.04 0.17 0.17 85 1015.1
20260906054018 53 0 0.0 7.0 0.03 0.16 0.16 85 1015.1
20260906053515 53 0 0.0 7.0 0.03 0.16 0.16 85 1015.2
20260906053031 53 0 0.0 7.0 0.02 0.15 0.15 85 1015.2
20260906052516 53 0 0.0 7.0 0.02 0.15 0.15 85 1015.3
20260906052016 53 0 0.0 3.0 0.02 0.15 0.15 85 1015.5
20260906051533 53 0 0.0 9.0 0.01 0.14 0.14 84 1015.6
20260906051019 53 0 0.0 9.0 0.02 0.14 0.14 84 1015.5
20260906050516 53 169 0.0 4.0 0.01 0.13 0.13 84 1015.5
20260906050033 53 0 0.0 6.0 0.01 0.13 0.13 85 1015.7
20260906045520 52 0 0.0 6.0 0.02 0.13 0.13 85 1015.8
20260906045017 52 0 0.0 6.0 0.02 0.13 0.13 85 1015.9
20260906044540 52 0 0.0 6.0 0.03 0.13 0.13 85 1015.9
20260906044018 52 207 0.0 5.0 0.05 0.13 0.13 85 1016.0
20260906043522 52 0 0.0 5.0 0.08 0.13 0.13 85 1016.1
20260906043042 52 0 1.0 5.0 0.10 0.13 0.13 86 1016.3
20260906042516 52 0 0.0 6.0 0.11 0.13 0.13 86 1016.5
20260906042016 52 0 0.0 6.0 0.11 0.13 0.13 86 1016.5
20260906041537 52 0 0.0 0.0 0.12 0.13 0.13 86 1016.8
20260906041019 52 0 0.0 0.0 0.11 0.12 0.12 86 1016.8
20260906040521 52 0 0.0 0.0 0.12 0.12 0.12 86 1017.0
20260906040036 52 0 0.0 2.0 0.12 0.12 0.12 86 1017.0
20260906035515 52 0 0.0 2.0 0.11 0.11 0.11 86 1017.2
20260906035015 52 0 0.0 2.0 0.11 0.11 0.11 86 1017.2
20260906034536 52 0 0.0 3.0 0.10 0.10 0.10 85 1017.3
20260906034018 52 0 0.0 5.0 0.07 0.07 0.07 85 1017.4
20260906033518 52 0 0.0 5.0 0.05 0.05 0.05 85 1017.4
20260906033034 52 0 0.0 0.0 0.03 0.03 0.03 84 1017.6
20260906032518 52 0 0.0 0.0 0.02 0.02 0.02 84 1017.7
20260906032018 52 0 0.0 0.0 0.02 0.02 0.02 84 1017.6
20260906031544 53 0 0.0 0.0 0.01 0.01 0.01 84 1017.6
20260906031017 53 0 0.0 4.0 0.01 0.01 0.01 84 1017.8
20260906030520 53 0 0.0 4.0 0.00 0.00 0.00 84 1017.7
20260906030033 53 0 0.0 0.0 0.00 0.00 0.00 83 1017.7
20260906025517 53 0 0.0 0.0 0.00 0.00 0.00 83 1018.0
20260906025017 53 0 0.0 2.0 0.00 0.00 0.00 83 1018.2
20260906024535 53 0 0.0 2.0 0.00 0.00 0.00 82 1018.2
20260906024022 53 0 0.0 1.0 0.00 0.00 0.00 82 1018.5
20260906023516 53 0 0.0 1.0 0.00 0.00 0.00 82 1018.7
20260906023032 53 0 0.0 0.0 0.00 0.00 0.00 82 1018.6
20260906022518 53 0 0.0 0.0 0.00 0.00 0.00 81 1018.7
20260906022016 53 0 0.0 0.0 0.00 0.00 0.00 80 1018.8
20260906021534 53 0 0.0 0.0 0.00 0.00 0.00 80 1018.9
20260906021017 53 0 0.0 0.0 0.00 0.00 0.00 80 1018.8
20260906020516 53 0 0.0 1.0 0.00 0.00 0.00 80 1018.8
20260906020049 53 0 0.0 1.0 0.00 0.00 0.00 81 1018.9
20260906015522 52 0 0.0 0.0 0.00 0.00 0.00 81 1018.9
20260906015018 52 0 0.0 0.0 0.00 0.00 0.00 81 1018.8
20260906014537 52 0 0.0 0.0 0.00 0.00 0.00 81 1018.8
20260906014019 52 0 0.0 0.0 0.00 0.00 0.00 81 1018.9
20260906013516 52 0 0.0 0.0 0.00 0.00 0.00 81 1018.9
20260906013033 52 0 0.0 0.0 0.00 0.00 0.00 81 1018.9
20260906012515 52 0 0.0 0.0 0.00 0.00 0.00 80 1018.8
20260906012015 52 0 0.0 0.0 0.00 0.00 0.00 80 1018.8
20260906011534 52 0 0.0 0.0 0.00 0.00 0.00 80 1018.8
20260906011020 52 0 0.0 0.0 0.00 0.00 0.00 80 1018.8
20260906010516 52 0 0.0 0.0 0.00 0.00 0.00 80 1019.1
20260906010033 52 0 0.0 0.0 0.00 0.00 0.00 80 1019.2
20260906005518 52 0 0.0 0.0 0.00 0.00 0.00 80 1019.5
20260906005016 52 0 0.0 0.0 0.00 0.00 0.00 80 1019.6
20260906004531 52 0 0.0 0.0 0.00 0.00 0.00 80 1019.7
20260906004016 52 0 0.0 0.0 0.00 0.00 0.00 81 1019.9
20260906003518 52 0 0.0 1.0 0.00 0.00 0.00 81 1020.0
20260906003033 51 0 0.0 1.0 0.00 0.00 0.00 81 1019.9
20260906002515 51 0 0.0 0.0 0.00 0.00 0.00 82 1019.9
20260906002018 50 0 0.0 0.0 0.00 0.00 0.00 81 1019.9
20260906001534 50 0 0.0 0.0 0.00 0.00 0.00 81 1019.8
20260906001017 50 0 0.0 0.0 0.00 0.00 0.00 81 1019.8
20260906000516 51 0 0.0 0.0 0.00 0.00 0.00 81 1020.0
20260906000032 51 0 0.0 0.0 0.00 0.00 0.00 81 1020.0
20260905235516 51 0 0.0 0.0 0.00 0.00 0.00 81 1020.0
20260905235018 51 0 0.0 0.0 0.00 0.00 0.00 81 1020.1
20260905234531 51 0 0.0 0.0 0.00 0.00 0.00 81 1020.2
20260905234022 51 0 0.0 0.0 0.00 0.00 0.00 81 1020.3
20260905233516 51 0 0.0 0.0 0.00 0.00 0.00 80 1020.4
20260905233038 51 0 0.0 0.0 0.00 0.00 0.00 80 1020.4
20260905232515 51 0 0.0 0.0 0.00 0.00 0.00 80 1020.5
20260905232016 51 0 0.0 0.0 0.00 0.00 0.00 80 1020.5
20260905231534 51 0 0.0 0.0 0.00 0.00 0.00 80 1020.6
20260905231017 51 0 0.0 0.0 0.00 0.00 0.00 80 1020.6
20260905230519 51 0 0.0 0.0 0.00 0.00 0.00 79 1020.5
20260905230032 52 0 0.0 0.0 0.00 0.00 0.00 79 1020.4
20260905225516 52 0 0.0 0.0 0.00 0.00 0.00 78 1020.5
20260905225018 52 0 0.0 0.0 0.00 0.00 0.00 79 1020.6
20260905224534 52 0 0.0 0.0 0.00 0.00 0.00 78 1020.8
20260905224018 52 0 0.0 0.0 0.00 0.00 0.00 78 1020.7
20260905223518 52 0 0.0 0.0 0.00 0.00 0.00 78 1020.7
20260905223038 52 0 0.0 0.0 0.00 0.00 0.00 78 1020.8
20260905222517 52 0 0.0 0.0 0.00 0.00 0.00 77 1020.7
20260905222022 52 0 0.0 0.0 0.00 0.00 0.00 78 1020.8
20260905221544 52 0 0.0 0.0 0.00 0.00 0.00 78 1020.7
20260905221016 52 0 0.0 0.0 0.00 0.00 0.00 78 1020.7
20260905220516 52 0 0.0 0.0 0.00 0.00 0.00 78 1020.9
20260905220034 52 0 0.0 0.0 0.00 0.00 0.00 77 1021.0
20260905215522 52 0 0.0 0.0 0.00 0.00 0.00 78 1021.1
20260905215017 52 0 0.0 0.0 0.00 0.00 0.00 78 1021.0
20260905214535 52 0 0.0 0.0 0.00 0.00 0.00 78 1021.0
20260905214016 52 0 0.0 0.0 0.00 0.00 0.00 77 1020.9
20260905213516 52 0 0.0 0.0 0.00 0.00 0.00 77 1020.8
20260905213037 52 0 0.0 0.0 0.00 0.00 0.00 77 1020.8
20260905212516 52 0 0.0 0.0 0.00 0.00 0.00 77 1020.7
20260905212026 52 0 0.0 0.0 0.00 0.00 0.00 77 1020.9
20260905211543 52 0 0.0 0.0 0.00 0.00 0.00 77 1021.0
20260905211017 52 0 0.0 0.0 0.00 0.00 0.00 77 1021.0
20260905210518 52 0 0.0 0.0 0.00 0.00 0.00 77 1020.8
20260905210048 52 0 0.0 0.0 0.00 0.00 0.00 77 1020.9
20260905205517 53 0 0.0 0.0 0.00 0.00 0.00 76 1020.9
20260905205016 53 0 0.0 0.0 0.00 0.00 0.00 77 1020.9
20260905204535 53 0 0.0 0.0 0.00 0.00 0.00 76 1020.9
20260905204015 53 0 0.0 0.0 0.00 0.00 0.00 76 1020.9
20260905203517 53 0 0.0 0.0 0.00 0.00 0.00 76 1020.8
20260905203037 53 0 0.0 0.0 0.00 0.00 0.00 76 1020.9
20260905202518 53 0 0.0 0.0 0.00 0.00 0.00 75 1021.1
20260905202016 53 0 0.0 0.0 0.00 0.00 0.00 75 1021.0
20260905201537 53 0 0.0 0.0 0.00 0.00 0.00 75 1021.0
20260905201018 54 0 0.0 0.0 0.00 0.00 0.00 74 1021.1
20260905200518 54 0 0.0 0.0 0.00 0.00 0.00 74 1021.0
20260905200051 54 0 0.0 0.0 0.00 0.00 0.00 74 1020.8
20260905195518 54 0 0.0 0.0 0.00 0.00 0.00 74 1021.0
20260905195021 54 0 0.0 0.0 0.00 0.00 0.00 73 1020.9
20260905194537 55 0 0.0 0.0 0.00 0.00 0.00 73 1020.9
20260905194018 55 0 0.0 0.0 0.00 0.00 0.00 72 1020.9
20260905193518 56 0 0.0 0.0 0.00 0.00 0.00 72 1020.9
20260905193031 56 0 0.0 0.0 0.00 0.00 0.00 71 1020.9
20260905192516 56 0 0.0 0.0 0.00 0.00 0.00 71 1020.9
20260905192019 57 0 0.0 0.0 0.00 0.00 0.00 70 1020.8
20260905191536 57 0 0.0 0.0 0.00 0.00 0.00 70 1020.8
20260905191018 57 0 0.0 0.0 0.00 0.00 0.00 70 1020.7
20260905190517 57 0 0.0 0.0 0.00 0.00 0.00 70 1020.8
20260905190035 58 0 0.0 0.0 0.00 0.00 0.00 69 1020.8
20260905185516 58 0 0.0 0.0 0.00 0.00 0.00 68 1020.6
20260905185015 58 0 0.0 0.0 0.00 0.00 0.00 68 1020.5
20260905184536 58 0 0.0 7.0 0.00 0.00 0.00 68 1020.4
20260905184019 58 0 0.0 7.0 0.00 0.00 0.00 68 1020.3
20260905183519 58 0 0.0 4.0 0.00 0.00 0.00 67 1020.3
20260905183033 58 0 0.0 4.0 0.00 0.00 0.00 67 1020.1
20260905182516 59 0 0.0 3.0 0.00 0.00 0.00 67 1020.1
20260905182019 59 0 0.0 3.0 0.00 0.00 0.00 68 1020.2
20260905181537 59 0 0.0 0.0 0.00 0.00 0.00 67 1020.2
20260905181016 59 0 0.0 0.0 0.00 0.00 0.00 67 1020.2
20260905180519 59 0 0.0 5.0 0.00 0.00 0.00 66 1020.1
20260905180037 59 0 0.0 6.0 0.00 0.00 0.00 66 1019.9
20260905175517 60 0 1.0 6.0 0.00 0.00 0.00 65 1020.0
20260905175020 60 0 0.0 8.0 0.00 0.00 0.00 65 1019.9
20260905174536 60 248 0.0 8.0 0.00 0.00 0.00 65 1019.9
20260905174016 60 0 0.0 3.0 0.00 0.00 0.00 66 1019.8
20260905173519 59 0 0.0 2.0 0.00 0.00 0.00 67 1020.0
20260905173037 59 0 0.0 9.0 0.00 0.00 0.00 66 1019.9
20260905172516 59 0 0.0 9.0 0.00 0.00 0.00 66 1019.9
20260905172016 59 0 0.0 7.0 0.00 0.00 0.00 66 1019.7
20260905171554 59 291 0.0 7.0 0.00 0.00 0.00 66 1019.5
20260905171021 59 0 1.0 7.0 0.00 0.00 0.00 66 1019.5
20260905170516 60 287 0.0 6.0 0.00 0.00 0.00 66 1019.5
20260905170036 60 0 0.0 9.0 0.00 0.00 0.00 66 1019.6
20260905165517 60 257 1.0 9.0 0.00 0.00 0.00 65 1019.5
20260905165019 60 274 0.0 9.0 0.00 0.00 0.00 66 1019.4
20260905164534 60 281 0.0 7.0 0.00 0.00 0.00 65 1019.5
20260905164017 60 0 0.0 7.0 0.00 0.00 0.00 64 1019.3
20260905163516 60 0 0.0 9.0 0.00 0.00 0.00 65 1019.5
20260905163032 60 267 1.0 9.0 0.00 0.00 0.00 64 1019.5
20260905162518 61 0 0.0 9.0 0.00 0.00 0.00 64 1019.4
20260905162018 61 276 1.0 9.0 0.00 0.00 0.00 63 1019.5
20260905161540 61 294 0.0 9.0 0.00 0.00 0.00 64 1019.4
20260905161020 61 0 0.0 6.0 0.00 0.00 0.00 63 1019.4
20260905160517 61 281 0.0 10.0 0.00 0.00 0.00 64 1019.3
20260905160044 61 0 0.0 10.0 0.00 0.00 0.00 64 1019.2
20260905155518 61 292 3.0 10.0 0.00 0.00 0.00 63 1019.1
20260905155018 61 0 0.0 9.0 0.00 0.00 0.00 64 1019.1
20260905154549 61 276 2.0 9.0 0.00 0.00 0.00 63 1019.0
20260905154016 62 0 0.0 10.0 0.00 0.00 0.00 63 1018.9
20260905153519 62 0 0.0 10.0 0.00 0.00 0.00 62 1018.9
20260905153034 62 0 1.0 11.0 0.00 0.00 0.00 61 1019.0
20260905152518 62 277 1.0 11.0 0.00 0.00 0.00 61 1018.9
20260905152018 63 292 1.0 11.0 0.00 0.00 0.00 61 1018.9
20260905151537 63 0 0.0 10.0 0.00 0.00 0.00 61 1018.8
20260905151019 63 0 1.0 12.0 0.00 0.00 0.00 60 1018.7
20260905150520 63 286 2.0 12.0 0.00 0.00 0.00 59 1018.9
20260905150033 63 0 1.0 10.0 0.00 0.00 0.00 59 1018.8
20260905145519 63 0 1.0 10.0 0.00 0.00 0.00 57 1018.8
20260905145021 64 236 0.0 12.0 0.00 0.00 0.00 56 1018.8
20260905144543 64 0 0.0 12.0 0.00 0.00 0.00 58 1018.8
20260905144015 64 0 2.0 12.0 0.00 0.00 0.00 56 1018.9
20260905143518 63 288 2.0 12.0 0.00 0.00 0.00 57 1018.9
20260905143034 64 298 1.0 11.0 0.00 0.00 0.00 54 1018.7
20260905142516 65 0 1.0 17.0 0.00 0.00 0.00 52 1018.7
20260905142019 65 281 4.0 17.0 0.00 0.00 0.00 52 1018.7
20260905141534 65 299 2.0 17.0 0.00 0.00 0.00 52 1018.6
20260905141018 64 0 2.0 16.0 0.00 0.00 0.00 53 1018.5
20260905140518 64 0 1.0 15.0 0.00 0.00 0.00 53 1018.5
20260905140038 64 317 1.0 14.0 0.00 0.00 0.00 53 1018.5
20260905135520 63 341 2.0 12.0 0.00 0.00 0.00 54 1018.5
20260905135019 62 0 3.0 14.0 0.00 0.00 0.00 55 1018.5
20260905134534 62 288 2.0 14.0 0.00 0.00 0.00 53 1018.5
20260905134016 63 0 2.0 12.0 0.00 0.00 0.00 52 1018.5
20260905133519 63 284 2.0 12.0 0.00 0.00 0.00 53 1018.5
20260905133034 63 0 0.0 10.0 0.00 0.00 0.00 53 1018.4
20260905132516 63 0 3.0 12.0 0.00 0.00 0.00 52 1018.3
20260905132019 64 286 2.0 16.0 0.00 0.00 0.00 50 1018.3
20260905131533 64 266 3.0 16.0 0.00 0.00 0.00 50 1018.4
20260905131016 65 273 2.0 11.0 0.00 0.00 0.00 50 1018.3
20260905130520 65 0 2.0 15.0 0.00 0.00 0.00 49 1018.1
20260905130033 66 294 2.0 15.0 0.00 0.00 0.00 50 1017.9
20260905125516 66 265 6.0 15.0 0.00 0.00 0.00 47 1017.9
20260905125016 67 290 4.0 15.0 0.00 0.00 0.00 48 1017.9
20260905124543 66 269 3.0 12.0 0.00 0.00 0.00 49 1018.1
20260905124021 66 296 0.0 14.0 0.00 0.00 0.00 51 1017.9
20260905123517 66 343 2.0 15.0 0.00 0.00 0.00 51 1018.1
20260905123035 66 324 4.0 15.0 0.00 0.00 0.00 50 1017.9
20260905122520 65 276 2.0 13.0 0.00 0.00 0.00 50 1018.0
20260905122016 65 360 2.0 13.0 0.00 0.00 0.00 51 1018.0
20260905121531 65 0 0.0 9.0 0.00 0.00 0.00 54 1017.8
20260905121016 64 0 0.0 10.0 0.00 0.00 0.00 54 1017.7
20260905120518 64 0 0.0 17.0 0.00 0.00 0.00 52 1017.7
20260905120033 64 0 0.0 17.0 0.00 0.00 0.00 55 1017.5
20260905115520 64 294 2.0 14.0 0.00 0.00 0.00 53 1017.3
20260905115019 63 0 0.0 12.0 0.00 0.00 0.00 54 1017.2
20260905114534 63 0 1.0 12.0 0.00 0.00 0.00 53 1017.1
20260905114017 62 309 2.0 15.0 0.00 0.00 0.00 52 1017.2
20260905113522 63 292 3.0 15.0 0.00 0.00 0.00 51 1017.1
20260905113036 63 283 3.0 14.0 0.00 0.00 0.00 51 1016.8